[[{"header":{"parameterUnit":"m.s-1","parameterCategory":1,"la1":30.2991,"la2":30.254,"lo1":-89.0895,"lo2":-89.0444,"dy":0.0017,"dx":0.0017,"nx":28,"ny":28,"refTime":"2024-08-23T21:00:00:Z","depth":0,"parameterNumber":2,"parameterNumberName":"U-component_of_WINDS"},"data":[0,0,0,0,0,0,0,0,0,0,0,0,0,0,0,0,0,0,0,0,0,0,0,0,0,0,0,0,0,0,0,0,0,0,0,0,0,0,0,0,0,0,0,0,0,0,0,0,0,0,0,0,0,0,0,0,0,0,-3.9458,-3.9458,0,-3.9411,-3.941,-3.9409,-3.9278,-3.9275,-3.9272,-3.927,-3.9224,-3.9226,-3.9227,0,0,0,0,0,0,0,0,0,0,0,0,0,-3.9439,-3.944,-3.9458,-3.9458,-3.9457,-3.9411,-3.941,-3.9409,-3.9279,-3.9275,-3.9272,-3.9268,-3.9224,-3.9226,-3.9227,0,0,0,0,0,0,0,0,0,0,0,0,0,-3.9425,-3.944,-3.9458,-3.9386,-3.9379,-3.9411,-3.941,-3.9409,-3.9279,-3.9275,-3.9271,-3.9267,-3.9223,-3.9225,-3.9228,-3.9326,0,0,-3.9234,-3.9235,0,0,0,0,0,0,0,0,-3.9426,-3.9426,-3.9397,-3.9391,-3.9383,-3.9346,-3.9386,-3.9382,-3.928,-3.9317,-3.927,-3.9265,-3.9268,-3.9267,-3.9267,-3.9324,-3.9322,-3.9234,-3.9236,-3.9237,-3.9237,0,0,0,0,0,0,0,-3.9427,-3.9427,-3.9439,-3.9397,-3.9389,-3.9357,-3.935,-3.9385,-3.9318,-3.9314,-3.9304,-3.93,-3.9264,-3.9265,-3.9265,-3.9322,-3.9234,-3.9236,-3.9238,-3.9238,-3.9459,-3.9464,0,0,0,0,0,0,-3.9438,-3.9429,-3.9441,-3.9438,-3.9395,-3.9361,-3.9353,-3.9362,-3.9317,-3.9306,-3.9304,-3.9294,-3.9264,-3.9263,-3.9263,-3.9377,-3.9237,-3.9239,-3.924,-3.9455,-3.946,-3.9465,0,0,0,0,0,0,-3.9438,-3.944,-3.9443,-3.9431,-3.9429,-3.9366,-3.9377,-3.9364,-3.9365,-3.9309,-3.9297,-3.9318,-3.926,-3.926,-3.9312,-3.9374,-3.924,-3.9242,-3.945,-3.9457,-3.9463,-3.9606,0,0,0,0,0,0,-3.9438,-3.9441,-3.9477,-3.9433,-3.943,-3.9492,-3.938,-3.9366,-3.9369,-3.9356,-3.9319,-3.9309,-3.9257,-3.9309,-3.9314,-3.9374,-3.9243,-3.9444,-3.9453,-3.9461,-3.9596,-3.9617,-3.9635,0,0,0,0,0,-3.9438,-3.952,-3.948,-3.9482,-3.9473,-3.9496,-3.9494,-3.9432,-3.9374,-3.9411,-3.9375,-3.931,-3.9366,-3.9316,-3.932,-3.9382,-3.944,-3.945,-3.946,-3.9587,-3.9613,-3.9635,0,0,0,0,0,0,-3.9574,-3.9513,-3.9468,-3.9537,-3.9523,-3.9473,-3.9517,-3.9461,-3.9464,-3.9451,-3.9375,-3.9368,-3.9431,-3.9411,-3.9356,-3.9476,-3.9392,-3.9404,-3.9487,-3.9511,-3.9531,-3.9535,-3.9245,0,0,0,0,0,-3.9612,-3.9634,-3.9579,-3.9646,-3.9641,-3.9581,-3.9588,-3.9542,-3.9524,-3.9517,-3.9485,-3.9472,-3.9486,-3.9497,-3.9507,-3.9592,-3.9583,-3.9636,-3.9656,-3.9673,-3.9685,-3.973,-3.9753,-3.9499,-3.9499,-3.9499,0,0,-3.9691,-3.966,-3.9679,-3.9673,-3.9656,-3.9682,-3.9577,-3.9608,-3.9627,-3.9522,-3.9569,-3.9546,-3.9525,-3.9595,-3.9623,-3.958,-3.9753,-3.9686,-3.97,-3.9702,-3.9743,-3.9767,-3.9788,-3.9506,-3.9505,-3.9504,0,0,-3.9849,-3.9827,-3.9881,-3.9866,-3.9842,-3.9801,-3.9815,-3.9774,-3.9754,-3.98,-3.9722,-3.9744,-3.977,-3.976,-3.9758,-3.9913,-3.9854,-3.9918,-4.0023,-4.0068,-4.0088,-4.0105,-4.0162,-4.0184,-3.9929,-3.993,-3.993,0,-3.9951,-3.9985,-3.9916,-3.9953,-3.9953,-3.9859,-3.9914,-3.9903,-3.9884,-3.9888,-3.9839,-3.987,-3.985,-3.9916,-3.9954,-3.9955,-3.9969,-3.9923,-4.009,-4.0107,-4.0122,-4.0176,-4.0198,-3.9938,-3.9937,-3.9936,-3.9935,0,-4.0113,-4.0138,-4.0185,-4.0169,-4.0174,-4.022,-4.0159,-4.0173,-4.0126,-4.0092,-4.0141,-4.0113,-4.0116,-4.0128,-4.0083,-4.0189,-4.0163,-4.0104,-4.0018,-4.0156,-4.0205,-4.0225,-3.995,-3.9947,-3.9944,-3.9942,0,0,-4.0355,-4.03,-4.0319,-4.0311,-4.0277,-4.0296,-4.0339,-4.0342,-4.0356,-4.0346,-4.0381,-4.0406,-4.0351,-4.0349,-4.0302,-4.0341,-4.0468,-4.0276,-4.0275,-4.0315,-4.0586,-4.0632,-4.0657,-4.0428,-4.0432,-4.0435,-4.0588,0,-4.0506,-4.0574,-4.0513,-4.0594,-4.0618,-4.0529,-4.0566,-4.0551,-4.052,-4.0536,-4.0502,-4.0522,-4.0446,-4.0445,-4.0479,-4.0446,-4.0522,-4.0433,-4.0462,-4.0464,-4.0472,-4.0682,-4.0731,-4.0878,-4.0607,-4.061,-4.0612,0,-4.069,-4.0689,-4.0772,-4.0735,-4.0742,-4.0777,-4.0775,-4.0792,-4.0773,-4.0748,-4.0746,-4.0688,-4.0729,-4.0644,-4.07,-4.0642,-4.065,-4.0635,-4.0639,-4.0641,-4.0548,-4.0692,-4.0922,-4.0946,-4.0642,-4.0639,-4.0637,0,-4.0862,-4.088,-4.0933,-4.0928,-4.0886,-4.0912,-4.0896,-4.0873,-4.0879,-4.0878,-4.0881,-4.0886,-4.0889,-4.0894,-4.084,-4.0782,-4.0904,-4.0814,-4.0886,-4.0887,-4.0916,-4.0916,-4.1154,-4.0919,-4.0919,-4.0918,-4.0918,0,-4.1037,-4.1092,-4.1009,-4.1042,-4.1102,-4.1031,-4.1093,-4.1067,-4.1048,-4.1075,-4.0998,-4.1025,-4.0951,-4.0971,-4.0929,-4.0983,-4.0984,-4.0966,-4.0955,-4.0974,-4.0977,-4.098,-4.0969,-4.0924,-4.0923,-4.0922,-4.0921,0,-4.1239,-4.1185,-4.1237,-4.1192,-4.1182,-4.1229,-4.1191,-4.122,-4.1184,-4.122,-4.1224,-4.1168,-4.1188,-4.1133,-4.1145,-4.1117,-4.1196,-4.1167,-4.1202,-4.1194,-4.127,-4.1265,-4.152,-4.155,-4.1295,-4.1297,-4.1299,0,-4.1355,-4.1395,-4.1355,-4.1367,-4.1355,-4.1376,-4.1382,-4.1315,-4.1324,-4.1307,-4.1339,-4.1352,-4.1359,-4.1396,-4.1357,-4.1366,-4.1338,-4.1427,-4.1339,-4.1358,-4.1342,-4.1341,-4.1346,-4.1446,-4.1449,-4.1451,-4.1454,0,-4.1568,-4.154,-4.155,-4.1553,-4.1562,-4.1561,-4.1555,-4.157,-4.1498,-4.1513,-4.1532,-4.1538,-4.155,-4.1565,-4.1566,-4.155,-4.1492,-4.1481,-4.1499,-4.152,-4.154,-4.1532,-4.1254,-4.1476,-4.1474,-4.1472,-4.1471,-4.147,-4.1731,-4.1764,-4.1741,-4.1756,-4.1744,-4.1741,-4.1766,-4.1733,-4.1748,-4.1752,-4.1712,-4.174,-4.1722,-4.1716,-4.1707,-4.1729,-4.1689,-4.1714,-4.172,-4.1728,-4.1742,-4.1535,-4.1729,-4.1728,-4.1727,-4.1727,-4.1726,0,-4.1942,-4.1923,-4.1938,-4.1931,-4.1944,-4.1886,-4.1876,-4.1891,-4.1917,-4.1904,-4.1913,-4.1936,-4.1951,-4.1913,-4.1922,-4.1948,-4.1921,-4.1953,-4.1951,-4.1949,-4.1776,-4.1761,-4.1974,-4.1974,-4.1974,-4.1974,-4.1974,-4.1974,-4.2053,-4.2105,-4.2075,-4.2121,-4.2102,-4.2128,-4.2128,-4.2125,-4.2115,-4.2144,-4.2155,-4.213,-4.2108,-4.2116,-4.2127,-4.2116,-4.2124,-4.2165,-4.2145,-4.1985,-4.1961,-4.1938,-4.1923,-4.2167,-4.2167,-4.2316,-4.2318,-4.2319]},{"header":{"parameterUnit":"m.s-1","parameterCategory":1,"la1":30.2991,"la2":30.254,"lo1":-89.0895,"lo2":-89.0444,"dy":0.0017,"dx":0.0017,"nx":28,"ny":28,"refTime":"2024-08-23T21:00:00:Z","depth":0,"parameterNumber":3,"parameterNumberName":"V-component_of_WINDS"},"data":[0,0,0,0,0,0,0,0,0,0,0,0,0,0,0,0,0,0,0,0,0,0,0,0,0,0,0,0,0,0,0,0,0,0,0,0,0,0,0,0,0,0,0,0,0,0,0,0,0,0,0,0,0,0,0,0,0,0,1.628,1.6278,0,1.6161,1.616,1.6159,1.6117,1.6118,1.6118,1.6119,1.5988,1.5985,1.5981,0,0,0,0,0,0,0,0,0,0,0,0,0,1.6463,1.646,1.628,1.6278,1.6277,1.6162,1.616,1.6158,1.6117,1.6118,1.6118,1.6119,1.599,1.5985,1.598,0,0,0,0,0,0,0,0,0,0,0,0,0,1.6368,1.6459,1.628,1.6243,1.6238,1.6162,1.616,1.6158,1.6117,1.6118,1.6119,1.6119,1.5991,1.5986,1.598,1.5929,0,0,1.5962,1.5959,0,0,0,0,0,0,0,0,1.6373,1.6361,1.625,1.6245,1.624,1.6155,1.6177,1.6081,1.6117,1.6163,1.6119,1.612,1.6043,1.6033,1.6008,1.5923,1.5917,1.5961,1.5958,1.5955,1.5953,0,0,0,0,0,0,0,1.638,1.6366,1.6233,1.6248,1.6242,1.623,1.6217,1.6158,1.61,1.6159,1.6156,1.6143,1.604,1.6014,1.6005,1.5915,1.5961,1.5956,1.5953,1.595,1.5783,1.5782,0,0,0,0,0,0,1.6394,1.6372,1.6236,1.6229,1.631,1.6226,1.6211,1.6181,1.61,1.6089,1.6142,1.6141,1.6024,1.6012,1.6,1.5935,1.5955,1.595,1.5946,1.5783,1.5782,1.5781,0,0,0,0,0,0,1.6398,1.6382,1.6241,1.63,1.6281,1.6222,1.6188,1.6179,1.6153,1.6088,1.6076,1.6127,1.6024,1.6009,1.5948,1.593,1.5947,1.5942,1.5785,1.5783,1.5782,1.5805,0,0,0,0,0,0,1.6404,1.6384,1.6366,1.63,1.6278,1.6193,1.6187,1.6176,1.6144,1.6142,1.6071,1.6059,1.6023,1.5957,1.5942,1.5922,1.5937,1.5786,1.5784,1.5782,1.5806,1.5805,1.5804,0,0,0,0,0,1.641,1.6375,1.6365,1.6349,1.6254,1.6192,1.6179,1.6141,1.6143,1.6123,1.6081,1.6062,1.5936,1.5951,1.5934,1.5912,1.5787,1.5784,1.5782,1.5806,1.5805,1.5804,0,0,0,0,0,0,1.6436,1.6365,1.6354,1.6296,1.6251,1.6185,1.6158,1.6141,1.6091,1.6091,1.6043,1.6027,1.597,1.5935,1.5954,1.5859,1.586,1.5854,1.5884,1.5882,1.5881,1.5889,1.5932,0,0,0,0,0,1.6437,1.6395,1.6334,1.6289,1.6267,1.6217,1.6188,1.6164,1.6113,1.6093,1.6047,1.5996,1.5945,1.5912,1.5861,1.5802,1.5785,1.5779,1.5778,1.5778,1.5772,1.5738,1.5734,1.5774,1.5774,1.5774,0,0,1.6434,1.639,1.6366,1.6293,1.6255,1.621,1.6201,1.6153,1.6119,1.6084,1.6025,1.599,1.593,1.587,1.5841,1.5839,1.5758,1.5775,1.5775,1.577,1.5735,1.5731,1.5728,1.5773,1.5773,1.5773,0,0,1.6406,1.637,1.6329,1.6292,1.6236,1.6203,1.6194,1.6131,1.6108,1.6048,1.6021,1.5979,1.5892,1.5851,1.5819,1.578,1.5759,1.5764,1.5759,1.5726,1.5722,1.5719,1.5704,1.5699,1.576,1.576,1.576,0,1.6409,1.6343,1.6309,1.6264,1.6232,1.6204,1.616,1.6125,1.6054,1.6032,1.6032,1.5924,1.5882,1.5811,1.5802,1.5778,1.5763,1.577,1.5726,1.5723,1.5719,1.5704,1.5698,1.5761,1.5761,1.5761,1.5761,0,1.6349,1.6304,1.6277,1.6214,1.6179,1.6135,1.6092,1.6061,1.604,1.6007,1.5947,1.5896,1.5835,1.5817,1.5794,1.5743,1.5744,1.5736,1.5735,1.5717,1.5702,1.5696,1.5762,1.5762,1.5762,1.5761,0,0,1.633,1.6252,1.6242,1.6213,1.6151,1.6114,1.6069,1.6013,1.5986,1.5939,1.5898,1.5828,1.5821,1.5784,1.5757,1.5729,1.57,1.5724,1.5722,1.572,1.5639,1.5644,1.5638,1.5688,1.5687,1.5686,1.5644,0,1.6293,1.6214,1.6183,1.6117,1.6074,1.6048,1.6009,1.5965,1.5934,1.5891,1.5856,1.5806,1.5802,1.5779,1.5751,1.571,1.5683,1.5713,1.5646,1.5645,1.566,1.563,1.5634,1.5597,1.5638,1.5637,1.5636,0,1.6238,1.6194,1.6126,1.607,1.6051,1.6016,1.5963,1.5924,1.5874,1.5853,1.5815,1.579,1.574,1.5746,1.5674,1.5696,1.5667,1.5644,1.5641,1.5631,1.5637,1.5617,1.5584,1.5577,1.5626,1.5627,1.5628,0,1.6229,1.6153,1.6102,1.6079,1.6013,1.5989,1.596,1.5912,1.588,1.5833,1.5812,1.5759,1.5729,1.5688,1.5649,1.5657,1.5581,1.5583,1.556,1.5561,1.5542,1.5543,1.5502,1.5529,1.5529,1.5529,1.5529,0,1.6189,1.6147,1.6098,1.6066,1.6018,1.5983,1.5936,1.5905,1.5863,1.5823,1.5797,1.576,1.5713,1.5669,1.5639,1.5584,1.5571,1.5551,1.5542,1.5551,1.5554,1.5529,1.553,1.5527,1.5528,1.5528,1.5528,0,1.6169,1.6135,1.6077,1.6022,1.6007,1.5974,1.5925,1.5893,1.5863,1.5813,1.5799,1.575,1.5697,1.5656,1.5586,1.5566,1.5508,1.55,1.5525,1.552,1.5499,1.5501,1.5438,1.5427,1.5464,1.5464,1.5464,0,1.6144,1.6112,1.6054,1.6028,1.6,1.5957,1.5926,1.5891,1.586,1.5803,1.5776,1.5723,1.5678,1.5595,1.5552,1.5499,1.5487,1.547,1.5479,1.5489,1.5484,1.5486,1.5482,1.5467,1.5467,1.5467,1.5467,0,1.6102,1.6088,1.6046,1.5999,1.5964,1.5924,1.5884,1.5863,1.582,1.5786,1.5734,1.57,1.5632,1.5578,1.5521,1.5489,1.5469,1.5465,1.5456,1.5463,1.5479,1.5468,1.5519,1.5465,1.5466,1.5466,1.5466,1.5466,1.6077,1.6047,1.6003,1.5958,1.5925,1.5889,1.5856,1.5824,1.5781,1.5724,1.5706,1.5652,1.5604,1.5526,1.5494,1.545,1.5448,1.5436,1.5433,1.5429,1.543,1.5489,1.544,1.544,1.544,1.544,1.544,0,1.6032,1.6004,1.5963,1.5909,1.5873,1.5864,1.582,1.5789,1.5743,1.5702,1.566,1.56,1.555,1.5504,1.5451,1.5424,1.5414,1.5411,1.541,1.5403,1.5435,1.5447,1.542,1.542,1.542,1.542,1.542,1.542,1.6004,1.5954,1.5935,1.5868,1.5839,1.5789,1.5764,1.573,1.5697,1.5633,1.5592,1.5564,1.5521,1.5465,1.5417,1.5405,1.5385,1.5384,1.5369,1.5398,1.5401,1.5403,1.5414,1.538,1.538,1.534,1.534,1.5339]}]]